This demonstration page uses our WeatherBlox Daily Observations layout. Learn more.

Left ArrowRight Arrow

39.29038, -76.61219

Hourly Observations for June 18, 2017

Temp ( °F °C ) Dew Point ( °F °C ) Humidity (%) Winds ( mph kmh ) Pressure ( in mb ) Visibility ( mi km ) Precip ( " mm )
12:54 am 00:54 undefined 78 25.6 73 22.8 85 85 undefined N/A 29.88 1012 N/A 0.00 0.00
1:54 am 01:54 undefined 77 25 73 22.8 88 88 undefined N/A 29.86 1011 N/A 0.00 0.00
2:54 am 02:54 undefined 77 25 73 22.8 88 88 undefined N/A 29.85 1011 N/A 0.00 0.00
3:54 am 03:54 undefined 77 25 73 22.8 88 88 undefined N/A 29.85 1011 N/A 0.00 0.00
4:54 am 04:54 undefined 77 25 73 22.8 88 88 undefined N/A 29.85 1011 N/A 0.00 0.00
5:54 am 05:54 undefined 77 25 73 22.8 88 88 undefined N/A 29.87 1012 N/A 0.00 0.00
6:54 am 06:54 undefined 77 25 73 22.8 88 88 undefined N/A 29.87 1012 N/A 0.00 0.00
7:54 am 07:54 undefined 78 25.6 73 22.8 85 85 undefined N/A 29.88 1012 N/A 0.00 0.00
8:54 am 08:54 undefined 80 26.7 73 22.8 79 79 undefined N/A 29.88 1012 N/A 0.00 0.00
9:54 am 09:54 undefined 82 27.8 73 22.8 74 74 undefined N/A 29.86 1011 N/A 0.00 0.00
10:54 am 10:54 undefined 84 28.9 73 22.8 70 70 undefined N/A 29.86 1011 N/A 0.00 0.00
11:54 am 11:54 undefined 86 30 73 22.8 65 65 undefined N/A 29.84 1011 N/A 0.00 0.00
12:54 pm 12:54 undefined 88 31.1 72 22.2 59 59 undefined N/A 29.83 1010 N/A 0.00 0.00
1:54 pm 13:54 undefined 91 32.8 72 22.2 54 54 undefined N/A 29.81 1009 N/A 0.00 0.00
2:54 pm 14:54 undefined 92 33.3 71 21.7 51 51 undefined N/A 29.79 1009 N/A 0.00 0.00
3:54 pm 15:54 undefined 92 33.3 74 23.3 56 56 undefined N/A 29.77 1008 N/A 0.00 0.00
4:54 pm 16:54 undefined 92 33.3 72 22.2 52 52 undefined N/A 29.76 1008 N/A 0.00 0.00
5:54 pm 17:54 undefined 91 32.8 70 21.1 50 50 undefined N/A 29.76 1008 N/A 0.00 0.00
6:54 pm 18:54 undefined 90 32.2 71 21.7 54 54 undefined N/A 29.78 1008 N/A 0.00 0.00
7:54 pm 19:54 undefined 89 31.7 71 21.7 55 55 undefined N/A 29.78 1008 N/A 0.00 0.00
8:54 pm 20:54 undefined 88 31.1 72 22.2 59 59 undefined N/A 29.78 1009 N/A 0.00 0.00
9:54 pm 21:54 undefined 87 30.6 72 22.2 61 61 undefined N/A 29.81 1010 N/A 0.00 0.00
10:54 pm 22:54 undefined 86 30 72 22.2 63 63 undefined N/A 29.82 1010 N/A 0.00 0.00
11:54 pm 23:54 undefined 86 30 73 22.8 65 65 undefined N/A 29.82 1010 N/A 0.00 0.00

Powered by AerisWeather